GFSSE_prec_precacc_132.txt.gz
Total_Precipitation_Accumulation
0.55 0.14 0.17 0.28 0.15 0.14 0.08 0.04 0.03 0.06 0.09 0.05 0.04 0.04 0.01 0.01 0.03 0.03 0.02 0.03 0.03 0.07 0.05 0.02 0.03 0.08 0.14 0.11 0.18 0.14 0.15 0.14 0.22 0.66 0.74 0.60 0.45 0.27 0.33 0.60 0.57 0.58 0.75
0.72 0.40 0.56 0.31 0.12 0.15 0.16 0.08 0.04 0.06 0.07 0.04 0.03 0.02 0.01 0.00 0.02 0.02 0.01 0.02 0.03 0.15 0.06 0.02 0.04 0.07 0.10 0.08 0.08 0.05 0.03 0.08 0.14 0.46 0.62 0.67 0.61 0.35 0.36 0.58 0.65 0.58 0.75
1.63 0.97 0.87 0.94 0.30 0.22 0.19 0.12 0.06 0.02 0.01 0.02 0.01 0.00 0.01 0.01 0.01 0.02 0.01 0.03 0.06 0.26 0.23 0.04 0.05 0.12 0.07 0.05 0.06 0.05 0.03 0.03 0.11 0.36 0.66 0.43 0.35 0.68 0.48 0.47 0.51 0.60 0.55
0.41 0.57 0.75 1.19 0.97 0.80 0.62 0.22 0.12 0.08 0.05 0.01 0.02 0.02 0.02 0.01 0.03 0.07 0.02 0.01 0.15 0.30 0.30 0.29 0.26 0.17 0.07 0.03 0.03 0.05 0.03 0.04 0.10 0.24 0.69 1.27 0.67 0.80 0.64 0.49 0.59 0.61 0.75
0.35 0.31 0.76 1.18 1.33 0.83 0.99 0.67 0.43 0.38 0.16 0.07 0.12 0.05 0.03 0.05 0.19 0.27 0.22 0.21 0.38 0.44 0.42 0.44 0.41 0.29 0.08 0.00 0.00 0.01 0.03 0.08 0.07 0.19 1.03 2.27 1.24 1.15 0.72 0.59 0.60 0.51 0.78
1.14 0.91 1.64 2.05 1.48 1.03 0.94 1.15 2.03 1.84 1.26 0.97 0.62 0.39 0.21 0.37 0.50 0.49 0.46 0.43 0.48 0.56 0.40 0.38 0.43 0.23 0.02 0.00 0.00 0.00 0.03 0.06 0.22 0.30 0.50 1.46 1.45 1.74 1.76 0.94 0.76 0.75 0.84
2.76 2.23 2.19 3.00 2.30 1.62 1.11 1.36 2.02 3.37 3.89 3.34 2.31 1.32 1.53 1.73 1.40 1.11 0.70 0.56 0.51 0.54 0.54 0.45 0.32 0.20 0.07 0.03 0.11 0.09 0.04 0.18 0.39 0.68 0.64 1.42 2.73 2.09 2.10 1.64 1.05 0.92 0.81
5.81 6.52 4.51 4.60 5.14 3.94 2.54 1.24 1.45 2.05 3.30 3.37 3.48 3.31 3.14 2.51 1.60 1.23 0.75 0.58 0.54 0.52 0.45 0.48 0.32 0.29 0.17 0.27 0.25 0.24 0.22 0.21 0.32 0.75 0.93 1.00 2.27 2.79 2.22 1.59 1.07 0.80 0.67
6.86 10.03 10.33 6.89 6.24 5.55 6.20 3.91 1.58 1.50 1.65 2.05 2.18 2.17 2.52 2.89 1.96 1.43 0.90 0.66 0.69 0.71 0.38 0.34 0.29 0.39 0.57 0.53 0.23 0.26 0.29 0.32 0.38 0.98 1.34 0.76 0.72 1.83 4.65 3.15 1.14 0.57 0.41
7.50 6.57 6.83 5.47 4.75 4.34 4.46 5.06 3.46 2.30 1.97 1.75 1.69 1.58 1.51 2.07 1.98 1.37 0.86 0.64 0.74 0.68 0.48 0.39 0.48 0.62 0.57 0.53 0.54 0.46 0.35 0.26 0.13 0.21 0.68 0.60 0.62 0.42 0.68 0.77 0.55 0.41 0.35
3.50 3.96 3.56 2.45 1.70 1.94 2.04 2.50 3.09 3.09 2.51 2.53 2.74 1.90 1.43 1.38 1.81 1.37 0.94 0.62 0.73 0.70 0.59 0.49 0.60 0.63 0.53 0.45 0.31 0.24 0.23 0.23 0.15 0.16 0.40 0.38 0.57 0.59 0.61 0.43 0.36 0.28 0.32
2.08 1.80 1.28 0.81 0.44 0.47 0.60 0.76 1.27 2.04 2.40 2.14 3.45 2.34 1.94 1.11 1.21 1.08 1.16 0.80 0.76 0.97 0.66 0.74 0.60 0.46 0.36 0.25 0.17 0.13 0.09 0.20 0.13 0.22 0.65 0.47 0.56 0.78 0.47 0.32 0.28 0.34 0.44
0.85 0.81 0.74 0.52 0.31 0.34 0.26 0.31 0.49 1.13 1.96 2.22 2.39 2.24 2.24 1.28 1.42 1.14 1.32 1.01 0.82 1.24 0.84 0.79 0.59 0.42 0.26 0.24 0.25 0.15 0.21 0.18 0.14 0.11 0.32 0.33 0.50 0.83 0.61 0.26 0.21 0.22 0.30
0.45 0.47 0.32 0.35 0.36 0.54 0.37 0.25 0.30 0.73 1.52 1.73 1.38 1.17 1.56 1.07 1.08 1.09 0.88 0.89 0.70 1.16 0.81 0.55 0.38 0.31 0.32 0.34 0.32 0.25 0.19 0.18 0.19 0.13 0.21 0.31 0.50 0.67 0.61 0.40 0.31 0.31 0.34
0.30 0.41 0.39 0.18 0.26 0.26 0.24 0.24 0.23 0.58 0.82 1.10 0.99 0.40 1.02 0.83 0.61 0.97 0.78 0.77 0.56 1.13 0.68 0.38 0.42 0.33 0.35 0.36 0.35 0.31 0.14 0.20 0.12 0.15 0.30 0.52 0.56 0.56 0.78 0.83 0.78 0.80 0.52
0.26 0.39 0.47 0.41 0.35 0.34 0.37 0.32 0.31 0.46 0.82 0.74 0.89 0.38 0.26 0.41 0.58 0.97 0.90 0.77 0.53 0.78 0.66 0.54 0.34 0.41 0.38 0.49 0.33 0.25 0.20 0.23 0.08 0.10 0.20 0.40 0.45 0.53 0.65 0.87 0.98 0.88 0.47
0.07 0.22 0.62 1.02 0.50 0.34 0.33 0.40 0.35 0.27 0.45 0.67 0.78 0.54 0.23 0.13 0.30 0.52 0.72 0.57 0.54 0.64 0.56 0.71 0.65 0.48 0.49 0.75 0.45 0.30 0.18 0.24 0.12 0.05 0.10 0.19 0.27 0.37 0.52 0.70 0.75 0.61 0.37
0.04 0.12 0.66 1.27 0.93 0.48 0.29 0.41 0.41 0.47 0.44 0.54 0.60 0.56 0.30 0.22 0.22 0.27 0.44 0.68 0.55 0.62 0.44 0.47 0.70 0.51 0.46 0.68 0.67 0.39 0.29 0.24 0.28 0.07 0.05 0.11 0.17 0.27 0.35 0.41 0.58 0.53 0.48
0.04 0.17 0.50 0.80 1.08 0.98 0.82 0.79 0.60 0.51 0.53 0.50 0.41 0.45 0.31 0.27 0.29 0.23 0.31 0.42 0.71 0.48 0.38 0.49 0.57 0.61 0.42 0.53 0.70 0.56 0.40 0.29 0.34 0.28 0.07 0.07 0.11 0.18 0.25 0.31 0.28 0.22 0.21
0.08 0.32 0.58 0.72 1.21 1.58 0.91 0.50 0.58 0.80 0.62 0.50 0.32 0.37 0.45 0.33 0.44 0.40 0.37 0.28 0.36 0.52 0.45 0.60 0.70 0.66 0.54 0.45 0.61 0.70 0.40 0.40 0.33 0.40 0.24 0.16 0.16 0.17 0.26 0.36 0.29 0.22 0.15
0.18 0.42 0.64 1.00 0.97 0.47 0.28 0.29 0.43 0.60 0.69 0.62 0.39 0.30 0.52 0.57 0.55 0.69 0.63 0.60 0.39 0.19 0.40 0.49 0.85 0.90 0.78 0.56 0.86 0.97 0.75 0.39 0.37 0.32 0.28 0.27 0.35 0.31 0.38 0.36 0.40 0.35 0.28
0.44 0.44 0.33 0.15 0.13 0.05 0.06 0.14 0.30 0.41 0.57 0.52 0.41 0.19 0.35 0.59 0.83 0.69 0.62 0.74 0.69 0.36 0.18 0.32 0.66 1.10 1.00 0.67 0.74 0.81 0.68 0.44 0.31 0.37 0.25 0.16 0.21 0.32 0.39 0.50 0.32 0.31 0.34
0.05 0.02 0.06 0.08 0.14 0.07 0.05 0.20 0.38 0.55 0.75 0.63 0.54 0.25 0.23 0.31 0.63 0.85 0.75 0.65 0.71 0.46 0.20 0.13 0.25 0.70 0.72 0.71 0.46 0.55 0.36 0.35 0.22 0.27 0.29 0.16 0.15 0.17 0.19 0.29 0.37 0.23 0.23
0.03 0.03 0.06 0.13 0.16 0.10 0.20 0.36 0.35 0.37 0.47 0.34 0.27 0.22 0.19 0.25 0.32 0.60 0.84 0.70 0.64 0.71 0.51 0.19 0.11 0.32 0.60 0.62 0.67 0.60 0.29 0.25 0.27 0.34 0.27 0.18 0.15 0.14 0.14 0.15 0.21 0.26 0.22
0.05 0.08 0.08 0.15 0.28 0.21 0.21 0.55 0.68 0.65 0.44 0.36 0.29 0.20 0.17 0.24 0.34 0.35 0.55 0.66 0.61 0.56 0.58 0.44 0.28 0.30 0.55 0.71 0.70 0.59 0.53 0.43 0.44 0.37 0.38 0.33 0.23 0.13 0.11 0.14 0.22 0.29 0.30
0.09 0.12 0.11 0.14 0.24 0.27 0.24 0.39 0.72 1.14 1.49 1.62 1.22 0.67 0.35 0.46 0.44 0.37 0.51 0.59 0.70 0.78 0.78 0.78 0.74 0.60 0.49 0.67 0.87 0.72 0.52 0.47 0.46 0.47 0.43 0.37 0.42 0.31 0.23 0.28 0.31 0.32 0.42

GFSSE_prec_precacc_135.txt.gz
Total_Precipitation_Accumulation
0.55 0.14 0.17 0.28 0.15 0.14 0.08 0.04 0.03 0.06 0.09 0.05 0.04 0.04 0.01 0.01 0.03 0.03 0.02 0.03 0.03 0.07 0.05 0.02 0.03 0.08 0.14 0.11 0.19 0.15 0.16 0.16 0.24 0.72 0.81 0.66 0.50 0.29 0.35 0.62 0.62 0.61 0.84
0.72 0.40 0.56 0.31 0.12 0.15 0.16 0.08 0.04 0.06 0.07 0.04 0.03 0.02 0.01 0.00 0.02 0.02 0.01 0.02 0.03 0.15 0.06 0.02 0.04 0.07 0.11 0.10 0.08 0.05 0.03 0.08 0.15 0.52 0.67 0.71 0.62 0.35 0.37 0.60 0.72 0.64 0.86
1.63 0.97 0.87 0.94 0.30 0.22 0.19 0.12 0.06 0.02 0.01 0.02 0.01 0.00 0.01 0.01 0.01 0.02 0.01 0.03 0.06 0.26 0.23 0.04 0.05 0.13 0.08 0.05 0.06 0.05 0.03 0.03 0.12 0.39 0.72 0.49 0.37 0.70 0.55 0.56 0.53 0.75 0.66
0.41 0.57 0.75 1.19 0.97 0.80 0.62 0.22 0.12 0.08 0.05 0.01 0.02 0.02 0.02 0.01 0.03 0.07 0.02 0.01 0.15 0.30 0.30 0.29 0.26 0.18 0.07 0.03 0.03 0.05 0.03 0.04 0.10 0.24 0.74 1.38 0.71 0.83 0.66 0.52 0.60 0.65 0.83
0.35 0.31 0.76 1.18 1.33 0.83 0.99 0.67 0.43 0.38 0.16 0.07 0.12 0.05 0.03 0.05 0.19 0.27 0.22 0.21 0.38 0.44 0.42 0.44 0.41 0.29 0.08 0.00 0.00 0.01 0.03 0.08 0.08 0.20 1.05 2.32 1.36 1.23 0.74 0.61 0.61 0.56 0.83
1.14 0.91 1.64 2.05 1.48 1.03 0.94 1.15 2.03 1.84 1.26 0.97 0.62 0.39 0.21 0.37 0.50 0.49 0.46 0.43 0.48 0.56 0.40 0.38 0.43 0.23 0.02 0.00 0.00 0.00 0.03 0.06 0.24 0.35 0.54 1.53 1.50 1.77 1.77 0.95 0.77 0.77 0.85
2.76 2.23 2.19 3.00 2.30 1.62 1.11 1.36 2.02 3.37 3.89 3.34 2.31 1.32 1.53 1.73 1.40 1.11 0.70 0.56 0.51 0.54 0.54 0.45 0.32 0.20 0.07 0.03 0.11 0.09 0.04 0.18 0.42 0.77 0.72 1.46 2.75 2.10 2.10 1.64 1.05 0.92 0.81
5.81 6.52 4.51 4.61 5.14 3.94 2.54 1.24 1.45 2.05 3.30 3.37 3.48 3.31 3.14 2.51 1.60 1.23 0.75 0.58 0.54 0.52 0.45 0.48 0.32 0.29 0.17 0.27 0.25 0.24 0.22 0.22 0.34 0.81 1.08 1.04 2.27 2.80 2.23 1.59 1.07 0.80 0.67
6.86 10.03 10.33 6.90 6.24 5.55 6.20 3.91 1.58 1.50 1.65 2.05 2.18 2.17 2.52 2.89 1.96 1.43 0.90 0.66 0.69 0.71 0.38 0.34 0.29 0.39 0.57 0.53 0.23 0.26 0.29 0.32 0.38 1.03 1.39 0.76 0.73 1.85 4.66 3.15 1.14 0.57 0.41
7.50 6.57 6.83 5.47 4.75 4.34 4.46 5.06 3.46 2.30 1.97 1.75 1.69 1.58 1.51 2.07 1.98 1.37 0.86 0.64 0.74 0.68 0.48 0.39 0.48 0.62 0.57 0.53 0.54 0.46 0.35 0.26 0.15 0.26 0.73 0.61 0.62 0.42 0.68 0.77 0.55 0.41 0.35
3.50 3.96 3.56 2.45 1.70 1.94 2.04 2.50 3.09 3.09 2.51 2.53 2.74 1.90 1.43 1.38 1.81 1.37 0.94 0.62 0.73 0.70 0.59 0.49 0.60 0.63 0.53 0.45 0.31 0.24 0.23 0.23 0.16 0.22 0.44 0.39 0.58 0.59 0.61 0.43 0.36 0.28 0.32
2.08 1.80 1.28 0.81 0.45 0.47 0.60 0.76 1.27 2.04 2.40 2.14 3.45 2.34 1.94 1.11 1.21 1.08 1.16 0.80 0.76 0.97 0.66 0.74 0.60 0.46 0.36 0.25 0.17 0.13 0.09 0.21 0.19 0.24 0.66 0.48 0.56 0.78 0.47 0.32 0.28 0.34 0.44
0.85 0.81 0.75 0.52 0.33 0.35 0.26 0.31 0.49 1.13 1.96 2.22 2.39 2.24 2.24 1.28 1.42 1.14 1.32 1.01 0.82 1.24 0.84 0.79 0.59 0.42 0.26 0.24 0.25 0.15 0.21 0.19 0.21 0.15 0.33 0.33 0.50 0.83 0.61 0.26 0.21 0.22 0.30
0.45 0.47 0.32 0.37 0.44 0.76 0.54 0.29 0.30 0.73 1.52 1.73 1.38 1.17 1.56 1.07 1.08 1.09 0.88 0.89 0.70 1.16 0.81 0.55 0.38 0.31 0.32 0.34 0.32 0.25 0.19 0.20 0.22 0.16 0.23 0.31 0.50 0.67 0.61 0.40 0.31 0.31 0.34
0.30 0.41 0.39 0.18 0.29 0.37 0.48 0.55 0.44 0.59 0.82 1.10 0.99 0.40 1.02 0.83 0.61 0.97 0.78 0.77 0.56 1.13 0.68 0.38 0.42 0.33 0.35 0.36 0.36 0.31 0.14 0.24 0.14 0.15 0.30 0.52 0.56 0.56 0.78 0.83 0.78 0.80 0.52
0.26 0.39 0.47 0.41 0.35 0.35 0.43 0.40 0.47 0.61 0.88 0.74 0.89 0.38 0.26 0.41 0.58 0.97 0.90 0.77 0.53 0.78 0.66 0.54 0.34 0.41 0.38 0.49 0.33 0.25 0.20 0.23 0.08 0.10 0.20 0.40 0.45 0.53 0.65 0.87 0.98 0.88 0.47
0.07 0.22 0.62 1.02 0.50 0.34 0.35 0.45 0.44 0.47 0.70 0.77 0.79 0.54 0.23 0.13 0.30 0.52 0.72 0.57 0.54 0.64 0.56 0.71 0.65 0.48 0.49 0.75 0.45 0.30 0.18 0.24 0.13 0.05 0.10 0.19 0.27 0.37 0.52 0.70 0.76 0.61 0.37
0.04 0.12 0.66 1.27 0.93 0.48 0.31 0.50 0.49 0.62 0.73 0.73 0.68 0.56 0.30 0.22 0.22 0.27 0.44 0.68 0.55 0.62 0.44 0.47 0.70 0.51 0.46 0.68 0.67 0.39 0.29 0.24 0.28 0.07 0.05 0.11 0.17 0.27 0.35 0.41 0.58 0.53 0.48
0.04 0.17 0.50 0.80 1.08 0.98 0.82 0.82 0.67 0.59 0.73 0.65 0.51 0.48 0.32 0.27 0.29 0.23 0.31 0.42 0.71 0.48 0.38 0.49 0.57 0.61 0.42 0.53 0.70 0.56 0.40 0.29 0.34 0.28 0.07 0.07 0.11 0.18 0.25 0.31 0.28 0.22 0.21
0.08 0.32 0.58 0.72 1.21 1.58 0.91 0.50 0.62 0.93 0.81 0.74 0.58 0.54 0.55 0.34 0.44 0.40 0.37 0.28 0.36 0.52 0.45 0.60 0.70 0.66 0.54 0.45 0.61 0.70 0.40 0.40 0.33 0.40 0.24 0.16 0.16 0.17 0.26 0.36 0.29 0.22 0.15
0.18 0.42 0.64 1.00 0.97 0.47 0.28 0.29 0.43 0.62 0.75 0.70 0.59 0.55 0.74 0.64 0.55 0.69 0.63 0.60 0.39 0.19 0.40 0.49 0.86 0.90 0.78 0.56 0.86 0.98 0.75 0.39 0.37 0.32 0.28 0.27 0.35 0.31 0.38 0.36 0.40 0.35 0.28
0.44 0.44 0.33 0.15 0.13 0.05 0.06 0.14 0.30 0.42 0.62 0.57 0.47 0.39 0.62 0.74 0.86 0.69 0.62 0.74 0.69 0.36 0.18 0.33 0.67 1.10 1.00 0.67 0.74 0.81 0.68 0.44 0.31 0.37 0.25 0.16 0.21 0.32 0.39 0.50 0.32 0.31 0.34
0.05 0.02 0.06 0.08 0.14 0.07 0.05 0.20 0.38 0.55 0.75 0.68 0.63 0.33 0.28 0.44 0.66 0.86 0.75 0.65 0.71 0.46 0.20 0.13 0.25 0.70 0.72 0.71 0.46 0.55 0.36 0.35 0.22 0.27 0.29 0.16 0.15 0.17 0.19 0.29 0.37 0.23 0.23
0.03 0.03 0.06 0.13 0.16 0.10 0.20 0.36 0.35 0.37 0.47 0.34 0.28 0.27 0.26 0.42 0.42 0.61 0.84 0.70 0.64 0.71 0.51 0.19 0.11 0.32 0.60 0.62 0.67 0.61 0.29 0.25 0.27 0.34 0.27 0.18 0.15 0.14 0.14 0.15 0.21 0.26 0.22
0.05 0.08 0.08 0.15 0.28 0.21 0.21 0.55 0.68 0.65 0.45 0.37 0.35 0.41 0.41 0.43 0.57 0.45 0.57 0.66 0.61 0.56 0.58 0.44 0.28 0.30 0.55 0.71 0.70 0.59 0.53 0.43 0.44 0.37 0.38 0.33 0.23 0.13 0.11 0.14 0.22 0.29 0.30
0.09 0.12 0.11 0.14 0.24 0.27 0.24 0.39 0.74 1.15 1.49 1.64 1.32 0.90 0.66 0.76 0.79 0.68 0.58 0.60 0.71 0.79 0.80 0.78 0.74 0.62 0.52 0.68 0.87 0.73 0.52 0.47 0.46 0.47 0.44 0.37 0.42 0.31 0.23 0.28 0.31 0.32 0.42

GFSSE_prec_precacc_141.txt.gz
Total_Precipitation_Accumulation
0.55 0.14 0.17 0.28 0.15 0.14 0.08 0.04 0.03 0.06 0.09 0.05 0.04 0.04 0.01 0.01 0.03 0.03 0.02 0.03 0.03 0.07 0.05 0.02 0.03 0.08 0.14 0.12 0.19 0.16 0.17 0.17 0.25 0.74 0.83 0.70 0.52 0.30 0.36 0.65 0.66 0.67 1.05
0.72 0.40 0.56 0.31 0.12 0.15 0.16 0.08 0.04 0.06 0.07 0.04 0.03 0.02 0.01 0.00 0.02 0.02 0.01 0.02 0.03 0.15 0.06 0.02 0.04 0.07 0.12 0.10 0.10 0.08 0.05 0.08 0.15 0.52 0.69 0.74 0.68 0.40 0.47 0.65 0.77 0.75 1.03
1.63 0.97 0.87 0.94 0.30 0.22 0.19 0.12 0.06 0.02 0.01 0.02 0.01 0.00 0.01 0.01 0.01 0.02 0.01 0.03 0.06 0.26 0.23 0.04 0.05 0.14 0.09 0.06 0.07 0.06 0.05 0.03 0.12 0.39 0.72 0.49 0.38 0.75 0.61 0.64 0.55 0.83 0.77
0.41 0.57 0.75 1.19 0.97 0.80 0.62 0.22 0.12 0.08 0.05 0.01 0.02 0.02 0.02 0.01 0.03 0.07 0.02 0.01 0.15 0.30 0.30 0.29 0.26 0.18 0.07 0.03 0.03 0.05 0.03 0.04 0.10 0.24 0.74 1.38 0.71 0.88 0.72 0.55 0.64 0.69 0.85
0.35 0.31 0.76 1.18 1.33 0.83 0.99 0.67 0.43 0.38 0.16 0.07 0.12 0.05 0.03 0.05 0.19 0.27 0.22 0.21 0.38 0.44 0.42 0.44 0.41 0.29 0.08 0.00 0.00 0.01 0.03 0.08 0.08 0.20 1.05 2.32 1.36 1.25 0.76 0.63 0.64 0.58 0.84
1.14 0.91 1.64 2.06 1.48 1.03 0.94 1.15 2.03 1.84 1.26 0.97 0.62 0.39 0.21 0.37 0.50 0.49 0.46 0.43 0.48 0.56 0.40 0.38 0.43 0.23 0.02 0.00 0.00 0.00 0.03 0.06 0.24 0.35 0.54 1.53 1.52 1.79 1.77 0.96 0.77 0.77 0.85
2.76 2.23 2.19 3.01 2.30 1.62 1.11 1.36 2.02 3.37 3.89 3.34 2.31 1.32 1.53 1.73 1.40 1.11 0.70 0.56 0.51 0.54 0.54 0.45 0.32 0.20 0.07 0.03 0.11 0.09 0.04 0.18 0.42 0.77 0.72 1.46 2.77 2.13 2.10 1.64 1.05 0.93 0.82
5.81 6.52 4.51 4.62 5.15 3.94 2.54 1.24 1.45 2.05 3.30 3.37 3.48 3.31 3.14 2.51 1.60 1.23 0.75 0.58 0.54 0.52 0.45 0.48 0.32 0.29 0.17 0.27 0.25 0.24 0.22 0.22 0.34 0.81 1.08 1.04 2.29 2.83 2.24 1.60 1.10 0.82 0.71
6.86 10.03 10.33 6.90 6.25 5.55 6.20 3.92 1.59 1.50 1.65 2.05 2.18 2.17 2.52 2.89 1.96 1.43 0.90 0.66 0.69 0.71 0.38 0.34 0.29 0.39 0.57 0.53 0.23 0.26 0.29 0.32 0.38 1.04 1.39 0.76 0.74 1.86 4.66 3.16 1.16 0.59 0.43
7.51 6.57 6.83 5.47 4.75 4.34 4.46 5.07 3.48 2.31 1.97 1.75 1.69 1.58 1.51 2.07 1.98 1.37 0.86 0.64 0.74 0.68 0.48 0.39 0.48 0.62 0.57 0.53 0.54 0.46 0.35 0.26 0.15 0.26 0.73 0.61 0.62 0.43 0.68 0.77 0.55 0.41 0.35
3.50 3.96 3.56 2.46 1.71 1.94 2.05 2.50 3.10 3.15 2.54 2.54 2.74 1.90 1.43 1.38 1.81 1.37 0.94 0.62 0.73 0.70 0.59 0.49 0.60 0.63 0.53 0.45 0.31 0.24 0.23 0.23 0.16 0.22 0.44 0.39 0.60 0.59 0.61 0.43 0.36 0.28 0.32
2.08 1.80 1.28 0.81 0.45 0.47 0.61 0.78 1.27 2.08 2.46 2.18 3.46 2.34 1.94 1.11 1.21 1.08 1.16 0.80 0.76 0.97 0.66 0.74 0.60 0.46 0.36 0.25 0.17 0.13 0.09 0.21 0.21 0.27 0.66 0.48 0.60 0.80 0.47 0.32 0.28 0.34 0.44
0.85 0.81 0.75 0.52 0.34 0.38 0.28 0.34 0.51 1.16 1.98 2.26 2.42 2.25 2.25 1.28 1.42 1.14 1.32 1.01 0.82 1.24 0.84 0.79 0.59 0.42 0.26 0.24 0.25 0.15 0.21 0.19 0.21 0.18 0.34 0.33 0.57 0.90 0.61 0.26 0.21 0.22 0.32
0.45 0.47 0.32 0.37 0.45 0.78 0.62 0.38 0.39 0.83 1.58 1.74 1.38 1.23 1.59 1.09 1.08 1.09 0.88 0.89 0.70 1.16 0.81 0.55 0.38 0.31 0.32 0.34 0.32 0.25 0.19 0.20 0.22 0.19 0.24 0.32 0.57 0.75 0.62 0.40 0.31 0.31 0.35
0.30 0.41 0.39 0.18 0.29 0.37 0.48 0.64 0.58 0.69 0.98 1.25 1.05 0.45 1.07 0.87 0.63 0.99 0.78 0.77 0.56 1.13 0.68 0.38 0.42 0.33 0.35 0.36 0.36 0.31 0.15 0.25 0.15 0.17 0.32 0.52 0.59 0.63 0.85 0.85 0.78 0.80 0.52
0.26 0.39 0.47 0.41 0.35 0.35 0.43 0.40 0.56 0.78 1.09 1.00 1.06 0.46 0.37 0.50 0.61 0.98 0.91 0.77 0.53 0.78 0.66 0.54 0.34 0.41 0.38 0.49 0.33 0.26 0.22 0.24 0.08 0.11 0.20 0.40 0.45 0.53 0.71 0.97 1.06 0.95 0.50
0.07 0.22 0.62 1.02 0.50 0.34 0.35 0.45 0.45 0.55 0.93 1.00 1.00 0.74 0.36 0.30 0.37 0.56 0.74 0.58 0.54 0.64 0.56 0.71 0.65 0.48 0.49 0.75 0.45 0.30 0.19 0.25 0.13 0.05 0.10 0.19 0.27 0.37 0.53 0.72 0.79 0.68 0.48
0.04 0.12 0.66 1.27 0.93 0.48 0.31 0.50 0.49 0.63 0.79 0.86 0.90 0.73 0.45 0.31 0.33 0.36 0.48 0.70 0.56 0.62 0.44 0.47 0.70 0.51 0.46 0.68 0.67 0.39 0.30 0.24 0.28 0.07 0.05 0.11 0.17 0.27 0.35 0.42 0.58 0.55 0.51
0.04 0.17 0.50 0.80 1.08 0.98 0.82 0.82 0.67 0.59 0.75 0.73 0.60 0.77 0.68 0.59 0.60 0.47 0.43 0.49 0.77 0.48 0.38 0.49 0.57 0.61 0.42 0.53 0.70 0.56 0.40 0.29 0.34 0.28 0.08 0.07 0.11 0.18 0.25 0.31 0.28 0.22 0.22
0.08 0.32 0.58 0.72 1.21 1.58 0.91 0.50 0.62 0.93 0.81 0.75 0.63 0.75 0.92 0.78 0.97 0.92 0.78 0.48 0.47 0.55 0.46 0.60 0.70 0.66 0.54 0.45 0.62 0.70 0.41 0.41 0.33 0.40 0.24 0.16 0.16 0.17 0.26 0.36 0.29 0.22 0.15
0.18 0.42 0.64 1.00 0.97 0.47 0.28 0.29 0.43 0.62 0.75 0.70 0.59 0.62 1.00 1.15 1.19 1.54 1.47 1.27 0.73 0.32 0.44 0.52 0.88 0.92 0.78 0.56 0.87 0.98 0.75 0.39 0.37 0.32 0.28 0.27 0.35 0.31 0.38 0.36 0.40 0.35 0.28
0.44 0.44 0.33 0.15 0.13 0.05 0.06 0.14 0.30 0.42 0.62 0.57 0.47 0.40 0.69 0.88 1.26 1.36 1.46 1.68 1.75 0.82 0.35 0.41 0.70 1.12 1.01 0.68 0.75 0.82 0.69 0.45 0.31 0.37 0.25 0.16 0.21 0.32 0.39 0.50 0.32 0.31 0.34
0.05 0.02 0.06 0.08 0.14 0.07 0.05 0.20 0.38 0.55 0.75 0.68 0.63 0.33 0.29 0.50 0.83 1.21 1.42 1.36 1.35 1.11 0.66 0.30 0.33 0.74 0.73 0.72 0.47 0.55 0.36 0.35 0.22 0.27 0.29 0.16 0.15 0.17 0.19 0.29 0.37 0.23 0.23
0.03 0.03 0.06 0.13 0.16 0.10 0.20 0.36 0.35 0.37 0.48 0.35 0.28 0.28 0.26 0.45 0.57 0.87 1.18 1.07 1.31 1.52 0.91 0.40 0.28 0.44 0.66 0.63 0.69 0.61 0.29 0.25 0.27 0.34 0.27 0.18 0.15 0.14 0.14 0.15 0.21 0.26 0.22
0.05 0.08 0.08 0.15 0.28 0.21 0.21 0.55 0.68 0.65 0.46 0.39 0.35 0.41 0.41 0.44 0.61 0.67 0.91 1.05 1.08 1.07 1.00 0.80 0.51 0.42 0.61 0.74 0.71 0.60 0.53 0.43 0.44 0.37 0.38 0.33 0.23 0.13 0.11 0.14 0.22 0.29 0.30
0.09 0.12 0.11 0.14 0.24 0.27 0.24 0.39 0.74 1.15 1.50 1.65 1.33 0.90 0.67 0.77 0.82 0.86 0.92 1.03 1.55 1.74 1.51 1.23 1.33 0.97 0.66 0.78 0.92 0.76 0.53 0.47 0.46 0.47 0.44 0.37 0.42 0.31 0.23 0.28 0.31 0.32 0.42

GFSSE_prec_precacc_144.txt.gz
Total_Precipitation_Accumulation
0.55 0.14 0.17 0.28 0.15 0.14 0.08 0.04 0.03 0.06 0.09 0.05 0.04 0.04 0.01 0.01 0.03 0.03 0.02 0.03 0.03 0.07 0.05 0.02 0.03 0.08 0.14 0.12 0.19 0.16 0.17 0.17 0.25 0.74 0.83 0.70 0.52 0.30 0.37 0.67 0.68 0.70 1.12
0.72 0.40 0.56 0.31 0.12 0.15 0.16 0.08 0.04 0.06 0.07 0.04 0.03 0.02 0.01 0.00 0.02 0.02 0.01 0.02 0.03 0.15 0.06 0.02 0.04 0.07 0.12 0.10 0.10 0.08 0.05 0.08 0.15 0.52 0.70 0.75 0.69 0.41 0.51 0.69 0.79 0.79 1.07
1.63 0.97 0.87 0.94 0.30 0.22 0.19 0.12 0.06 0.02 0.01 0.02 0.01 0.00 0.01 0.01 0.01 0.02 0.01 0.03 0.06 0.26 0.23 0.04 0.05 0.14 0.09 0.06 0.07 0.06 0.05 0.03 0.12 0.39 0.72 0.50 0.38 0.76 0.62 0.65 0.58 0.85 0.80
0.41 0.57 0.75 1.19 0.97 0.80 0.62 0.22 0.12 0.08 0.05 0.01 0.02 0.02 0.02 0.01 0.03 0.07 0.02 0.01 0.15 0.30 0.30 0.29 0.26 0.18 0.07 0.03 0.03 0.05 0.03 0.04 0.10 0.24 0.74 1.38 0.71 0.90 0.74 0.57 0.65 0.69 0.85
0.35 0.31 0.76 1.18 1.33 0.83 0.99 0.67 0.43 0.38 0.16 0.07 0.12 0.05 0.03 0.05 0.19 0.27 0.22 0.21 0.38 0.44 0.42 0.44 0.41 0.29 0.08 0.00 0.00 0.01 0.03 0.08 0.08 0.20 1.05 2.32 1.36 1.27 0.77 0.63 0.64 0.58 0.84
1.14 0.91 1.64 2.06 1.48 1.03 0.94 1.15 2.03 1.84 1.26 0.97 0.62 0.39 0.21 0.37 0.50 0.49 0.46 0.43 0.48 0.56 0.40 0.38 0.43 0.23 0.02 0.00 0.00 0.00 0.03 0.06 0.24 0.35 0.54 1.53 1.52 1.80 1.77 0.96 0.77 0.77 0.86
2.76 2.23 2.19 3.01 2.30 1.62 1.11 1.36 2.02 3.37 3.89 3.34 2.31 1.32 1.53 1.73 1.40 1.11 0.70 0.56 0.51 0.54 0.54 0.45 0.32 0.20 0.07 0.03 0.11 0.09 0.04 0.18 0.42 0.77 0.72 1.46 2.77 2.16 2.11 1.65 1.06 0.94 0.84
5.81 6.52 4.51 4.62 5.15 3.95 2.55 1.25 1.45 2.05 3.30 3.37 3.48 3.31 3.14 2.51 1.60 1.23 0.75 0.58 0.54 0.52 0.45 0.48 0.32 0.29 0.17 0.27 0.25 0.24 0.22 0.22 0.34 0.81 1.08 1.04 2.30 2.85 2.29 1.65 1.13 0.84 0.73
6.86 10.03 10.33 6.90 6.25 5.55 6.20 3.92 1.62 1.54 1.69 2.06 2.18 2.17 2.52 2.89 1.96 1.43 0.90 0.66 0.69 0.71 0.38 0.34 0.29 0.39 0.57 0.53 0.23 0.26 0.29 0.32 0.38 1.04 1.39 0.76 0.75 1.88 4.69 3.19 1.18 0.61 0.45
7.51 6.57 6.83 5.47 4.75 4.34 4.46 5.07 3.53 2.40 2.06 1.81 1.71 1.58 1.51 2.07 1.98 1.37 0.86 0.64 0.74 0.68 0.48 0.39 0.48 0.62 0.57 0.53 0.54 0.46 0.35 0.26 0.15 0.26 0.73 0.61 0.64 0.45 0.73 0.81 0.59 0.43 0.36
3.50 3.96 3.56 2.46 1.71 1.94 2.05 2.50 3.14 3.21 2.60 2.62 2.83 1.99 1.47 1.38 1.81 1.37 0.94 0.62 0.73 0.70 0.59 0.49 0.60 0.63 0.53 0.45 0.31 0.24 0.23 0.23 0.16 0.22 0.44 0.39 0.62 0.63 0.65 0.46 0.38 0.30 0.33
2.08 1.80 1.28 0.81 0.45 0.47 0.61 0.78 1.27 2.09 2.48 2.20 3.52 2.44 2.06 1.16 1.22 1.08 1.16 0.80 0.76 0.97 0.66 0.74 0.60 0.46 0.36 0.25 0.17 0.13 0.09 0.21 0.21 0.27 0.66 0.49 0.65 0.85 0.50 0.34 0.31 0.36 0.44
0.85 0.81 0.75 0.52 0.34 0.38 0.28 0.34 0.51 1.16 1.99 2.26 2.43 2.28 2.29 1.33 1.45 1.14 1.32 1.01 0.82 1.24 0.84 0.79 0.59 0.42 0.26 0.24 0.25 0.15 0.21 0.19 0.21 0.18 0.34 0.33 0.58 0.91 0.62 0.27 0.23 0.23 0.32
0.45 0.47 0.32 0.37 0.45 0.78 0.62 0.38 0.39 0.83 1.58 1.75 1.39 1.24 1.63 1.14 1.13 1.11 0.89 0.89 0.70 1.16 0.81 0.55 0.38 0.31 0.32 0.34 0.32 0.25 0.19 0.20 0.22 0.19 0.24 0.32 0.57 0.76 0.63 0.41 0.31 0.31 0.35
0.30 0.41 0.39 0.18 0.29 0.37 0.48 0.64 0.58 0.69 0.98 1.26 1.06 0.46 1.10 0.93 0.69 1.06 0.82 0.79 0.57 1.13 0.68 0.38 0.42 0.33 0.35 0.36 0.36 0.31 0.15 0.25 0.15 0.17 0.32 0.52 0.59 0.65 0.91 0.86 0.79 0.80 0.52
0.26 0.39 0.47 0.41 0.35 0.35 0.43 0.40 0.56 0.78 1.09 1.00 1.06 0.47 0.41 0.58 0.72 1.13 0.97 0.80 0.54 0.78 0.66 0.54 0.34 0.41 0.38 0.49 0.33 0.26 0.22 0.24 0.08 0.11 0.20 0.40 0.46 0.54 0.75 1.02 1.12 0.97 0.50
0.07 0.22 0.62 1.02 0.50 0.34 0.35 0.45 0.45 0.55 0.93 1.00 1.00 0.74 0.37 0.34 0.48 0.74 0.93 0.69 0.56 0.65 0.58 0.72 0.65 0.48 0.49 0.75 0.45 0.30 0.19 0.25 0.13 0.05 0.10 0.19 0.27 0.37 0.53 0.73 0.83 0.73 0.52
0.04 0.12 0.66 1.27 0.93 0.48 0.31 0.50 0.49 0.63 0.79 0.86 0.90 0.73 0.45 0.32 0.38 0.47 0.71 0.92 0.75 0.69 0.46 0.47 0.71 0.51 0.46 0.68 0.67 0.39 0.30 0.24 0.28 0.07 0.05 0.11 0.17 0.27 0.35 0.42 0.59 0.56 0.52
0.04 0.17 0.50 0.80 1.08 0.98 0.82 0.82 0.67 0.59 0.75 0.73 0.60 0.77 0.68 0.59 0.61 0.52 0.53 0.68 1.03 0.69 0.41 0.49 0.57 0.61 0.42 0.53 0.70 0.56 0.40 0.29 0.34 0.29 0.08 0.07 0.11 0.18 0.25 0.31 0.29 0.23 0.23
0.08 0.32 0.58 0.72 1.21 1.58 0.91 0.50 0.62 0.93 0.81 0.75 0.63 0.75 0.92 0.78 0.97 0.93 0.82 0.61 0.70 0.80 0.61 0.63 0.71 0.66 0.55 0.45 0.62 0.70 0.41 0.41 0.33 0.40 0.24 0.16 0.16 0.17 0.26 0.36 0.29 0.22 0.15
0.18 0.42 0.64 1.00 0.97 0.47 0.28 0.29 0.43 0.62 0.75 0.70 0.59 0.62 1.00 1.15 1.19 1.54 1.48 1.31 0.84 0.52 0.63 0.68 0.93 0.94 0.80 0.59 0.92 0.99 0.75 0.39 0.38 0.32 0.29 0.28 0.35 0.32 0.38 0.36 0.40 0.35 0.29
0.44 0.44 0.33 0.15 0.13 0.05 0.06 0.14 0.30 0.42 0.62 0.57 0.47 0.40 0.69 0.88 1.26 1.36 1.47 1.71 1.86 1.22 0.74 0.72 1.00 1.24 1.04 0.74 0.79 0.83 0.70 0.45 0.31 0.37 0.25 0.17 0.21 0.32 0.39 0.50 0.32 0.31 0.34
0.05 0.02 0.06 0.08 0.14 0.07 0.05 0.20 0.38 0.55 0.75 0.68 0.63 0.33 0.29 0.50 0.83 1.21 1.42 1.36 1.37 1.27 1.14 1.11 1.30 1.51 0.95 0.78 0.56 0.59 0.37 0.36 0.22 0.27 0.29 0.16 0.15 0.17 0.19 0.29 0.37 0.23 0.23
0.03 0.03 0.06 0.13 0.16 0.10 0.20 0.36 0.35 0.37 0.48 0.35 0.29 0.28 0.26 0.45 0.57 0.87 1.18 1.07 1.31 1.55 1.06 0.88 0.67 1.03 1.09 0.75 0.81 0.69 0.31 0.25 0.27 0.34 0.27 0.18 0.15 0.14 0.14 0.15 0.21 0.26 0.22
0.05 0.08 0.08 0.15 0.28 0.21 0.21 0.55 0.68 0.66 0.46 0.39 0.36 0.42 0.41 0.44 0.61 0.67 0.91 1.05 1.08 1.08 1.09 0.97 0.63 0.54 0.80 0.99 0.82 0.69 0.61 0.44 0.44 0.37 0.38 0.33 0.23 0.13 0.11 0.14 0.22 0.29 0.30
0.09 0.12 0.11 0.14 0.24 0.27 0.24 0.39 0.75 1.16 1.51 1.66 1.34 0.92 0.68 0.78 0.83 0.87 0.92 1.03 1.55 1.75 1.53 1.31 1.52 1.29 0.98 1.00 1.11 0.99 0.68 0.52 0.48 0.48 0.44 0.37 0.42 0.31 0.23 0.28 0.31 0.32 0.42

GFSSE_prec_precacc_147.txt.gz
Total_Precipitation_Accumulation
0.55 0.14 0.17 0.28 0.15 0.14 0.08 0.04 0.03 0.06 0.09 0.05 0.04 0.04 0.01 0.01 0.03 0.03 0.02 0.03 0.03 0.07 0.05 0.02 0.03 0.08 0.14 0.12 0.19 0.16 0.17 0.17 0.25 0.74 0.83 0.70 0.52 0.30 0.37 0.67 0.69 0.71 1.13
0.72 0.40 0.56 0.31 0.12 0.15 0.16 0.08 0.04 0.06 0.07 0.04 0.03 0.02 0.01 0.00 0.02 0.02 0.01 0.02 0.03 0.15 0.06 0.02 0.04 0.07 0.12 0.10 0.10 0.08 0.05 0.08 0.15 0.52 0.70 0.75 0.70 0.43 0.54 0.69 0.79 0.80 1.07
1.63 0.97 0.87 0.94 0.30 0.22 0.19 0.12 0.06 0.02 0.01 0.02 0.01 0.00 0.01 0.01 0.01 0.02 0.01 0.03 0.06 0.26 0.23 0.04 0.05 0.14 0.09 0.06 0.07 0.06 0.05 0.03 0.12 0.39 0.72 0.50 0.38 0.77 0.64 0.66 0.58 0.89 0.81
0.41 0.57 0.75 1.19 0.97 0.80 0.62 0.22 0.12 0.08 0.05 0.01 0.02 0.02 0.02 0.01 0.03 0.07 0.02 0.01 0.15 0.30 0.30 0.29 0.26 0.18 0.07 0.03 0.03 0.05 0.03 0.04 0.10 0.24 0.74 1.38 0.71 0.91 0.75 0.57 0.65 0.71 0.85
0.36 0.31 0.78 1.20 1.34 0.83 0.99 0.67 0.43 0.38 0.16 0.07 0.12 0.05 0.03 0.05 0.19 0.27 0.22 0.21 0.38 0.44 0.42 0.44 0.41 0.29 0.08 0.00 0.00 0.01 0.03 0.08 0.08 0.20 1.05 2.32 1.37 1.28 0.77 0.64 0.65 0.63 0.85
1.14 0.91 1.64 2.07 1.50 1.03 0.94 1.16 2.04 1.84 1.26 0.97 0.62 0.39 0.21 0.37 0.50 0.49 0.46 0.43 0.48 0.56 0.40 0.38 0.43 0.23 0.02 0.00 0.00 0.00 0.03 0.06 0.24 0.35 0.54 1.53 1.52 1.84 1.79 0.98 0.81 0.80 0.89
2.76 2.23 2.19 3.01 2.31 1.63 1.12 1.37 2.03 3.38 3.89 3.34 2.31 1.32 1.53 1.74 1.40 1.11 0.70 0.56 0.51 0.54 0.54 0.45 0.32 0.20 0.07 0.03 0.11 0.09 0.04 0.18 0.42 0.77 0.72 1.46 2.77 2.22 2.20 1.68 1.08 0.96 0.88
5.81 6.52 4.51 4.62 5.15 3.95 2.56 1.26 1.46 2.07 3.34 3.37 3.48 3.32 3.16 2.53 1.60 1.23 0.75 0.58 0.54 0.52 0.45 0.48 0.32 0.29 0.17 0.27 0.25 0.24 0.22 0.22 0.34 0.81 1.08 1.04 2.30 2.89 2.39 1.72 1.15 0.87 0.77
6.86 10.03 10.33 6.90 6.25 5.55 6.20 3.93 1.65 1.56 1.74 2.11 2.20 2.22 2.58 2.93 1.98 1.44 0.90 0.66 0.69 0.71 0.38 0.34 0.29 0.39 0.57 0.53 0.23 0.26 0.29 0.32 0.38 1.04 1.39 0.76 0.75 1.89 4.76 3.23 1.21 0.62 0.47
7.51 6.57 6.83 5.47 4.75 4.34 4.46 5.07 3.57 2.44 2.08 1.82 1.74 1.66 1.61 2.17 2.03 1.38 0.86 0.64 0.74 0.68 0.48 0.39 0.48 0.62 0.57 0.53 0.54 0.46 0.35 0.26 0.15 0.26 0.73 0.61 0.64 0.47 0.79 0.87 0.62 0.45 0.38
3.50 3.96 3.56 2.46 1.71 1.94 2.05 2.50 3.14 3.23 2.64 2.64 2.83 2.03 1.57 1.50 1.94 1.47 0.95 0.62 0.73 0.70 0.59 0.49 0.60 0.63 0.53 0.45 0.31 0.24 0.23 0.23 0.16 0.22 0.44 0.39 0.62 0.66 0.73 0.49 0.40 0.31 0.33
2.08 1.80 1.28 0.81 0.45 0.47 0.61 0.78 1.27 2.09 2.48 2.21 3.53 2.44 2.06 1.20 1.30 1.15 1.25 0.87 0.77 0.98 0.66 0.74 0.60 0.46 0.36 0.25 0.17 0.13 0.09 0.21 0.21 0.27 0.66 0.49 0.65 0.85 0.54 0.35 0.32 0.37 0.45
0.85 0.81 0.75 0.52 0.34 0.38 0.28 0.34 0.51 1.16 1.99 2.26 2.43 2.28 2.29 1.34 1.46 1.16 1.36 1.07 0.85 1.25 0.85 0.79 0.59 0.42 0.26 0.24 0.25 0.15 0.21 0.19 0.21 0.18 0.34 0.33 0.58 0.93 0.63 0.29 0.25 0.23 0.32
0.45 0.47 0.32 0.37 0.45 0.78 0.62 0.38 0.39 0.83 1.58 1.75 1.39 1.24 1.63 1.14 1.14 1.14 0.92 0.93 0.74 1.18 0.81 0.56 0.38 0.31 0.32 0.34 0.32 0.25 0.19 0.20 0.22 0.19 0.24 0.32 0.57 0.78 0.64 0.44 0.31 0.31 0.35
0.30 0.41 0.39 0.18 0.29 0.37 0.48 0.64 0.58 0.69 0.98 1.26 1.06 0.46 1.10 0.93 0.70 1.08 0.84 0.83 0.60 1.17 0.70 0.40 0.42 0.33 0.35 0.36 0.36 0.31 0.15 0.25 0.15 0.17 0.32 0.52 0.59 0.66 0.95 0.87 0.81 0.80 0.52
0.26 0.39 0.47 0.41 0.35 0.35 0.43 0.40 0.56 0.78 1.09 1.00 1.06 0.47 0.41 0.58 0.72 1.15 1.02 0.87 0.61 0.84 0.72 0.57 0.36 0.42 0.38 0.49 0.33 0.26 0.22 0.24 0.08 0.11 0.20 0.40 0.47 0.54 0.78 1.08 1.15 0.98 0.50
0.07 0.22 0.62 1.02 0.50 0.34 0.35 0.45 0.45 0.55 0.93 1.00 1.00 0.74 0.37 0.34 0.48 0.74 0.94 0.73 0.64 0.72 0.64 0.76 0.68 0.50 0.49 0.75 0.45 0.30 0.19 0.25 0.13 0.05 0.10 0.19 0.27 0.37 0.53 0.74 0.86 0.80 0.56
0.04 0.12 0.66 1.27 0.93 0.48 0.31 0.50 0.49 0.63 0.79 0.86 0.90 0.73 0.45 0.32 0.38 0.47 0.71 0.92 0.80 0.82 0.58 0.54 0.73 0.53 0.47 0.68 0.67 0.39 0.30 0.24 0.28 0.07 0.05 0.11 0.17 0.27 0.35 0.42 0.59 0.58 0.55
0.04 0.17 0.50 0.80 1.08 0.98 0.82 0.82 0.67 0.59 0.75 0.73 0.60 0.77 0.68 0.59 0.61 0.52 0.53 0.68 1.04 0.77 0.60 0.64 0.63 0.62 0.42 0.53 0.70 0.56 0.40 0.29 0.34 0.29 0.08 0.07 0.11 0.18 0.25 0.31 0.29 0.23 0.23
0.08 0.32 0.58 0.72 1.21 1.58 0.91 0.50 0.62 0.93 0.81 0.75 0.63 0.75 0.92 0.78 0.97 0.93 0.82 0.61 0.70 0.82 0.69 0.83 0.89 0.78 0.57 0.45 0.62 0.70 0.41 0.41 0.33 0.40 0.25 0.17 0.16 0.17 0.26 0.36 0.29 0.22 0.15
0.18 0.42 0.64 1.00 0.97 0.47 0.28 0.29 0.43 0.62 0.75 0.70 0.59 0.62 1.00 1.15 1.19 1.54 1.49 1.31 0.84 0.53 0.65 0.75 1.13 1.15 0.96 0.65 0.96 1.01 0.76 0.39 0.38 0.32 0.29 0.28 0.35 0.32 0.38 0.37 0.40 0.35 0.29
0.44 0.44 0.33 0.15 0.13 0.05 0.06 0.14 0.30 0.42 0.62 0.57 0.47 0.40 0.69 0.88 1.26 1.36 1.47 1.71 1.86 1.22 0.75 0.73 1.07 1.51 1.61 1.40 1.14 0.90 0.71 0.46 0.31 0.37 0.25 0.17 0.21 0.32 0.39 0.51 0.32 0.31 0.34
0.05 0.02 0.06 0.08 0.14 0.07 0.05 0.20 0.38 0.56 0.76 0.68 0.64 0.34 0.29 0.50 0.83 1.21 1.42 1.37 1.37 1.27 1.14 1.11 1.31 1.74 1.62 1.60 1.29 1.07 0.48 0.38 0.22 0.27 0.29 0.16 0.15 0.17 0.19 0.29 0.37 0.23 0.23
0.03 0.03 0.06 0.13 0.16 0.10 0.20 0.36 0.35 0.38 0.49 0.36 0.29 0.29 0.26 0.45 0.57 0.87 1.18 1.07 1.31 1.55 1.07 0.89 0.67 1.07 1.55 1.71 1.99 1.54 0.73 0.31 0.28 0.34 0.27 0.18 0.15 0.14 0.14 0.15 0.21 0.26 0.22
0.05 0.08 0.08 0.15 0.28 0.21 0.21 0.55 0.69 0.66 0.47 0.40 0.37 0.43 0.42 0.45 0.62 0.68 0.92 1.06 1.09 1.09 1.10 0.97 0.63 0.55 0.82 1.06 1.08 1.27 1.41 0.80 0.51 0.38 0.38 0.33 0.23 0.13 0.11 0.14 0.22 0.29 0.30
0.09 0.12 0.11 0.14 0.24 0.27 0.24 0.39 0.75 1.16 1.51 1.66 1.34 0.93 0.68 0.79 0.84 0.87 0.93 1.04 1.56 1.76 1.54 1.31 1.52 1.30 0.98 1.01 1.21 1.20 0.89 0.71 0.56 0.51 0.44 0.37 0.42 0.31 0.23 0.28 0.31 0.32 0.42